Greenville, AL

9:56 AM CST on December 16, 2017 (GMT -0600)
Greenville Municipal

Weather History for KPRN - November, 2011

Change the Weather History Date:

Thursday, November 10, 2011

  Actual Average Record
Temperature  
Mean Temperature 50 °F -  
Max Temperature 57 °F 70 °F 81 °F (1945)
Min Temperature 42 °F 46 °F 28 °F (1956)
Degree Days  
Heating Degree Days 14    
Moisture  
Dew Point 33 °F    
Average Humidity 56    
Maximum Humidity 86    
Minimum Humidity 30    
Precipitation  
Precipitation 0.00 in - - ()
Sea Level Pressure  
Sea Level Pressure 30.12 in    
Wind  
Wind Speed 11 mph (NW)    
Max Wind Speed 17 mph    
Max Gust Speed 24 mph    
Visibility 10 miles    
Events Rain    
Averages and records for this station are not official NWS values.
T = Trace of Precipitation, MM = Missing Value Source: NWS Daily Summary

Daily Weather History Graph

Daily Weather History Graph

Search for Another Location

Airport or City:

Trip Planner

Search our weather history database for the weather conditions in past years. The results will help you decide how hot, cold, wet, or windy it might be!

Date:

Astronomy

Nov. 10, 2011 Rise Set
Actual Time 6:10 AM CST 4:50 PM CST
Civil Twilight 5:44 AM CST 5:15 PM CST
Nautical Twilight 5:15 AM CST 5:44 PM CST
Astronomical Twilight 4:46 AM CST 6:13 PM CST
Moon 4:41 PM CST (11/10) 5:59 AM CST (11/10)
Length of Visible Light 11h 31m
Length of Day
10h 39m
Full, 100% of the Moon is Illuminated
Nov 10
Full
Nov 10
Full
Nov 18
Last Quarter
Nov 25
New
Dec 2
First Quarter

Hourly Weather History & Observations

Time (CST) Temp. Windchill Dew Point Humidity Pressure Visibility Wind Dir Wind Speed Gust Speed Precip Events Conditions
12:56 AM 52.0 °F - 48.0 °F 86% 30.04 in 10.0 mi NNW 11.5 mph 17.3 mph N/A   Clear
1:56 AM 51.1 °F - 46.0 °F 83% 30.05 in 10.0 mi NW 9.2 mph - N/A   Clear
2:56 AM 50.0 °F - 44.1 °F 80% 30.07 in 10.0 mi NW 9.2 mph 19.6 mph N/A   Clear
3:56 AM 48.0 °F - 42.1 °F 80% 30.06 in 10.0 mi NNW 12.7 mph 20.7 mph N/A   Clear
4:56 AM 46.9 °F - 41.0 °F 80% 30.08 in 10.0 mi NNW 10.4 mph 20.7 mph N/A   Clear
5:56 AM 46.0 °F 40.6 °F 39.0 °F 76% 30.10 in 10.0 mi NNW 11.5 mph 23.0 mph N/A   Clear
6:56 AM 45.0 °F 38.9 °F 37.9 °F 76% 30.12 in 10.0 mi NNW 12.7 mph - N/A   Clear
7:56 AM 46.0 °F 39.6 °F 37.0 °F 71% 30.14 in 10.0 mi NNW 15.0 mph - N/A   Clear
8:56 AM 48.0 °F - 36.0 °F 63% 30.16 in 10.0 mi NNW 17.3 mph 20.7 mph 0.00 in   Clear
9:56 AM 48.0 °F - 35.1 °F 61% 30.17 in 10.0 mi NNW 13.8 mph 20.7 mph 0.00 in   Clear
10:56 AM 48.9 °F - 33.1 °F 54% 30.15 in 10.0 mi NNW 15.0 mph 24.2 mph 0.00 in   Clear
11:56 AM 51.1 °F - 33.1 °F 50% 30.12 in 10.0 mi NNW 16.1 mph 24.2 mph 0.00 in Rain Light Rain
12:56 PM 52.0 °F - 32.0 °F 47% 30.10 in 10.0 mi NNW 16.1 mph 19.6 mph 0.00 in   Clear
1:56 PM 55.9 °F - 30.0 °F 37% 30.09 in 10.0 mi NW 17.3 mph 24.2 mph 0.00 in   Clear
2:56 PM 57.9 °F - 30.0 °F 35% 30.07 in 10.0 mi NW 15.0 mph 21.9 mph 0.00 in Rain Light Rain
3:56 PM 57.0 °F - 26.1 °F 30% 30.09 in 10.0 mi NW 11.5 mph - 0.00 in Rain Light Rain
4:56 PM 55.0 °F - 25.0 °F 31% 30.10 in 10.0 mi NW 8.1 mph - 0.00 in Rain Light Rain
5:56 PM 52.0 °F - 26.1 °F 37% 30.12 in 10.0 mi NW 6.9 mph - 0.00 in Rain Light Rain
6:56 PM 50.0 °F - 26.1 °F 39% 30.15 in 10.0 mi NW 6.9 mph - 0.00 in Rain Light Rain
7:56 PM 48.9 °F - 25.0 °F 39% 30.17 in 10.0 mi NW 10.4 mph - 0.00 in Rain Light Rain
8:56 PM 46.9 °F - 24.1 °F 41% 30.19 in 10.0 mi NW 6.9 mph - 0.00 in Rain Light Rain
9:56 PM 45.0 °F 42.6 °F 24.1 °F 44% 30.19 in 10.0 mi NW 4.6 mph - 0.00 in Rain Light Rain
10:56 PM 44.1 °F 41.5 °F 24.1 °F 45% 30.19 in 10.0 mi NW 4.6 mph - 0.00 in Rain Light Rain
11:56 PM 42.1 °F 39.2 °F 25.0 °F 51% 30.20 in 10.0 mi NW 4.6 mph - 0.00 in Rain Light Rain